Wind_Speed
26 27 26 19 33 31 19 12 10 15 17 25 25 21 18 12 9 12 13 16 16 18 21 21 24 24 26 29 28 19 18 14 14 4 7 9 8 9 13 13 16 23 28 32 37 29 23 20 20
23 26 28 21 22 26 15 23 25 13 16 24 19 17 14 13 14 14 16 20 18 15 18 18 21 25 25 29 29 22 15 17 12 5 7 8 7 10 14 19 16 22 27 34 38 33 22 23 25
33 28 13 25 15 23 14 23 25 22 24 28 18 18 18 16 17 16 15 17 22 16 19 18 21 24 24 28 29 24 16 16 18 8 11 4 10 7 11 17 20 21 26 33 35 32 26 25 26
37 38 6 11 23 19 5 5 12 16 21 25 18 18 17 17 21 19 18 21 22 23 25 21 22 23 24 27 27 23 15 12 17 11 9 6 10 10 12 17 21 19 28 34 29 32 28 26 25
32 29 16 14 23 17 21 9 11 23 19 15 17 17 17 18 15 17 19 22 25 31 23 20 22 22 24 26 26 26 15 12 17 11 10 7 8 9 14 18 20 22 31 33 27 37 31 22 22
28 20 11 7 20 20 28 22 6 10 15 18 21 19 18 16 23 24 27 24 20 27 17 23 23 26 24 25 27 29 22 13 17 10 7 7 9 14 17 18 19 21 28 34 26 31 28 21 23
30 25 20 14 18 27 27 24 20 18 16 21 24 22 18 20 25 28 23 12 11 21 22 24 27 28 25 26 28 28 20 14 13 13 11 10 8 12 15 18 16 21 27 28 23 29 28 18 22
20 27 27 25 14 27 37 34 33 29 26 26 26 24 23 23 23 24 20 21 17 27 29 36 31 27 26 30 30 27 25 17 11 13 15 11 12 8 12 17 18 20 24 26 24 25 24 22 22
24 24 25 20 20 22 30 25 25 28 27 28 28 28 27 27 28 30 22 30 31 35 32 33 25 26 27 31 30 28 27 20 11 15 17 15 15 11 12 17 16 16 20 26 26 23 20 19 21
26 27 26 23 24 20 23 24 29 28 29 30 32 31 32 32 30 32 22 13 30 30 35 25 24 27 29 33 29 27 27 20 16 18 15 16 18 18 16 13 12 13 19 17 23 32 19 17 21
27 26 27 27 28 25 21 25 26 27 32 35 35 36 39 40 34 32 39 36 38 39 35 21 31 28 31 33 29 29 26 20 18 21 21 22 18 14 12 8 16 13 15 20 22 28 15 13 16
28 27 26 27 30 29 26 26 27 30 30 35 40 41 39 38 33 33 39 40 38 40 34 37 40 33 32 29 30 28 25 21 20 21 26 27 17 14 13 9 14 12 19 17 16 14 13 10 13
33 33 30 30 34 37 37 33 33 34 35 36 38 43 43 44 41 39 43 44 45 41 40 41 43 33 34 33 32 27 25 20 19 17 24 21 20 17 17 11 12 15 18 13 16 13 13 9 12
36 33 33 35 37 38 39 38 36 37 39 40 42 45 47 46 47 48 45 45 45 45 45 45 41 38 36 36 28 23 23 19 15 15 16 21 19 14 16 14 13 14 13 12 14 12 10 8 9
37 37 37 39 41 40 39 38 37 38 39 39 42 43 43 43 44 41 44 44 44 40 41 44 42 40 37 33 25 24 20 18 14 13 14 14 12 14 11 7 14 11 12 7 9 9 10 15 8
38 36 38 39 39 39 39 37 36 37 34 34 37 33 32 39 42 40 35 37 40 41 33 39 36 35 34 26 22 21 17 12 14 9 10 11 13 11 12 9 13 11 10 3 3 8 6 6 6
35 36 37 35 34 35 35 35 35 32 24 13 32 28 13 28 35 25 28 33 34 38 36 30 32 30 29 23 20 16 14 6 14 12 9 11 10 11 14 16 16 10 6 3 3 7 6 6 7
35 35 32 30 32 32 33 33 28 23 17 25 20 23 20 19 24 17 21 22 24 29 37 33 28 24 21 17 12 12 15 8 6 15 13 9 13 17 17 15 15 7 10 5 4 6 4 2 5
34 32 30 29 29 29 29 19 25 17 23 23 23 22 22 19 23 25 17 22 24 19 21 22 22 18 14 12 9 7 14 14 11 8 14 15 15 12 11 12 10 10 9 6 6 4 2 3 5
32 29 28 27 26 26 18 18 26 22 26 24 18 21 22 23 16 23 23 20 17 16 17 18 17 13 12 7 10 15 13 14 11 12 14 13 17 11 12 9 14 10 10 10 5 4 1 2 3
29 27 27 25 24 19 22 19 28 26 19 17 4 21 12 21 26 22 16 20 18 14 15 14 11 15 16 7 15 18 13 12 11 11 15 10 11 13 15 16 14 11 8 13 10 5 5 4 2
27 28 24 21 20 24 21 22 20 13 8 6 6 2 10 7 4 11 18 20 12 8 9 11 11 17 16 11 12 14 12 10 13 17 16 13 14 16 14 15 14 18 12 11 15 13 9 8 3
26 24 24 22 18 23 21 22 9 3 5 4 8 1 6 6 8 15 14 14 6 7 8 7 16 18 18 12 12 12 12 12 13 12 12 13 19 20 18 19 18 17 20 18 14 20 16 12 9
28 23 24 21 28 27 16 8 9 3 15 16 11 6 11 9 5 3 5 5 4 4 7 6 13 17 18 15 14 11 10 10 13 11 8 10 11 16 19 22 22 20 22 22 19 16 24 16 11
28 25 25 24 33 27 12 8 3 10 10 13 14 13 13 10 7 3 5 11 7 5 9 10 12 14 17 19 15 16 13 13 13 13 10 7 8 12 17 21 22 22 24 24 22 21 18 18 20
30 27 26 26 33 29 14 6 4 5 4 4 7 15 17 16 13 8 4 6 8 9 11 8 10 16 20 18 18 14 15 15 14 14 14 14 14 13 12 12 16 20 20 24 25 25 22 25 24
26 26 27 30 39 36 24 24 15 7 5 1 1 5 13 15 17 12 15 13 12 12 12 15 14 14 14 15 18 23 23 22 21 18 18 20 20 20 20 15 13 9 14 17 22 22 23 27 29
30 30 30 34 41 43 38 23 16 11 7 3 2 6 10 9 13 17 19 17 16 15 14 19 23 18 20 24 23 22 24 22 22 26 26 26 21 22 26 24 15 15 17 17 14 17 22 23 20
25 23 19 21 40 39 34 34 23 28 17 11 7 6 9 9 9 13 13 13 11 15 23 26 24 28 30 32 34 34 35 34 36 31 30 29 30 28 25 23 23 22 25 23 22 17 20 21 18
25 23 24 25 33 37 36 26 17 18 18 18 15 11 7 8 11 11 13 16 16 16 16 19 20 17 23 28 37 40 39 38 39 36 33 33 37 35 33 31 28 24 23 22 21 20 22 23 18
Wind_Direction
211 207 207 218 231 227 241 235 220 232 256 257 258 259 268 264 267 269 286 278 311 321 330 332 344 353 3 4 5 352 10 2 355 92 64 74 58 28 17 358 346 352 353 351 350 347 338 341 356
174 188 197 200 211 213 205 215 252 234 249 251 252 243 253 265 263 264 264 278 294 321 340 342 342 344 354 2 4 354 2 357 359 340 69 54 35 17 6 3 343 352 356 356 4 352 350 350 352
162 158 144 182 145 203 183 224 218 227 252 251 228 244 261 254 257 257 274 293 309 316 327 334 339 339 349 357 2 360 352 344 357 321 8 19 9 346 357 357 357 350 357 351 353 4 352 344 347
168 156 106 153 190 161 32 184 225 254 268 264 241 251 253 263 272 270 279 296 307 307 318 319 327 338 347 351 357 358 342 330 350 329 337 12 354 0 354 352 351 1 358 356 360 2 355 350 354
177 181 161 155 184 191 201 178 243 245 265 251 251 258 266 267 283 282 287 302 300 300 303 324 328 334 342 345 350 354 343 315 336 307 312 316 332 0 354 342 346 359 358 1 2 358 356 6 7
173 181 160 160 198 200 211 220 283 244 250 240 246 252 270 300 293 282 295 301 310 321 300 321 324 327 333 340 342 344 341 325 315 299 300 279 307 315 329 329 339 357 2 1 9 6 18 16 35
201 200 203 237 234 213 212 218 224 247 241 247 253 261 270 270 271 293 297 283 292 303 284 316 324 324 326 332 337 340 334 312 302 287 265 266 322 308 314 324 345 355 359 0 7 19 11 24 22
219 221 227 244 237 237 238 242 230 250 266 266 262 269 273 279 279 284 282 270 283 300 292 303 316 318 319 327 330 332 327 309 284 281 260 266 285 308 325 330 332 341 355 355 1 1 8 8 25
221 230 236 245 242 242 235 244 257 260 261 263 269 271 275 274 278 283 271 274 280 277 283 300 310 319 317 320 323 324 321 311 268 270 283 261 270 277 317 318 324 338 359 9 13 347 12 28 23
220 226 234 234 244 245 246 258 259 261 265 267 269 271 275 277 277 284 264 282 288 300 301 301 308 313 313 314 315 319 313 301 270 253 244 265 259 278 311 313 319 328 357 32 28 6 26 32 38
229 227 229 237 241 247 250 254 264 269 267 266 265 267 274 277 274 268 268 279 280 284 288 292 310 307 309 309 310 317 307 293 282 268 234 249 250 281 282 298 318 330 13 3 345 345 23 22 37
235 237 235 234 237 237 245 252 258 263 266 269 273 275 273 274 272 268 275 276 277 279 279 285 301 302 302 303 308 308 299 290 281 273 228 231 232 273 260 300 310 343 8 359 1 14 25 31 39
241 237 240 244 243 248 262 267 268 264 268 269 272 274 276 277 276 269 275 275 276 277 282 286 291 294 296 297 299 301 293 287 288 260 221 218 225 260 261 287 305 313 339 342 359 4 14 34 41
243 249 250 253 254 257 262 266 270 273 276 280 279 280 282 280 279 277 275 275 276 282 282 282 286 291 292 294 295 289 289 291 280 239 215 224 240 236 262 275 301 299 316 335 358 21 31 28 52
244 246 249 254 257 261 265 267 271 274 275 278 281 280 281 284 283 282 278 278 278 277 278 282 283 286 286 287 286 279 278 297 238 221 214 228 228 231 269 258 283 303 308 329 30 34 49 39 353
246 249 252 255 259 263 267 272 271 274 283 294 293 284 290 291 288 286 277 285 281 275 276 287 282 283 277 278 277 277 279 277 223 193 188 214 230 247 231 231 269 290 294 296 304 7 28 43 343
246 249 253 259 265 267 269 269 273 275 279 337 294 281 233 280 290 281 298 301 280 272 276 278 282 271 269 272 271 270 271 200 204 209 252 228 228 250 249 265 248 266 256 147 47 42 354 78 50
247 251 256 261 262 267 271 274 275 270 206 183 254 261 226 258 271 275 288 295 309 282 268 278 273 260 260 263 260 268 199 183 216 200 180 223 223 221 227 256 263 230 216 216 155 41 64 240 344
246 252 258 259 264 264 265 263 257 241 206 208 234 238 202 228 238 265 286 297 298 295 277 270 258 252 257 236 211 193 210 202 196 223 213 227 238 233 236 237 220 194 201 227 227 335 187 22 5
244 248 253 257 253 251 248 218 237 227 213 228 225 216 229 230 225 257 269 296 314 292 277 267 261 250 212 180 217 207 216 214 217 236 231 241 228 223 230 217 201 223 236 239 218 215 75 299 324
243 245 248 241 242 243 219 215 233 213 199 211 214 210 261 248 238 247 272 290 298 292 278 248 233 208 176 183 227 228 209 223 219 236 233 233 211 219 220 213 225 227 253 230 209 172 252 183 296
237 239 231 228 233 210 227 210 203 191 160 164 218 201 260 294 320 258 255 257 280 285 291 261 207 190 183 198 217 222 217 252 234 230 229 232 230 220 229 217 244 243 231 224 231 228 263 232 263
225 219 224 223 215 213 218 229 170 33 348 312 275 191 239 265 241 202 209 234 208 247 275 224 187 197 202 208 204 220 225 244 211 207 230 247 234 239 240 240 239 248 240 237 247 244 236 242 236
214 211 219 222 193 198 197 200 161 253 335 329 288 255 216 208 252 246 186 210 242 237 246 221 198 202 208 224 223 226 220 211 211 231 272 252 242 243 251 250 253 245 246 245 258 246 236 239 234
207 209 223 212 191 193 131 115 304 290 316 308 279 272 256 225 222 261 252 245 263 245 224 227 237 229 235 237 232 230 228 226 237 254 266 264 246 243 254 257 261 258 253 242 245 237 236 256 248
208 212 214 201 179 183 143 104 282 260 309 314 322 266 264 250 230 252 246 242 251 285 241 262 259 253 251 237 228 230 240 239 242 252 260 248 261 258 257 268 263 256 258 259 251 248 253 252 251
214 216 202 190 193 189 175 158 174 214 246 307 310 285 259 260 260 269 259 286 268 254 242 248 259 255 237 249 232 261 256 257 257 254 255 255 253 262 264 263 285 300 302 277 261 254 259 264 253
218 209 201 192 195 194 189 186 181 227 241 286 277 290 284 276 262 257 257 271 269 257 259 251 245 243 228 223 255 263 267 261 274 263 267 264 262 258 257 261 261 271 266 281 281 281 270 279 251
218 211 203 195 190 198 200 205 199 208 215 209 209 248 283 283 294 294 297 297 292 270 252 245 248 247 247 257 261 265 269 267 270 274 263 265 264 259 258 253 256 263 276 262 278 279 301 265 247
212 201 188 188 189 202 211 198 206 226 207 228 238 238 248 249 258 288 305 303 302 292 285 278 275 287 273 271 269 270 272 273 277 274 272 264 263 265 258 258 256 252 257 245 273 271 280 272 259
Height
11010 11014 11019 11019 11021 11023 11024 11026 11029 11029 11029 11028 11026 11027 11028 11030 11032 11030 11030 11028 11027 11025 11023 11021 11021 11020 11018 11015 11012 11008 11006 11001 10999 10997 10995 10995 10994 10993 10992 10991 10989 10986 10983 10980 10974 10969 10964 10961 10956
11008 11009 11014 11016 11019 11022 11022 11020 11026 11026 11027 11028 11027 11025 11026 11027 11029 11027 11027 11027 11025 11023 11021 11019 11018 11017 11015 11013 11011 11008 11006 11003 11000 10998 10997 10997 10995 10994 10993 10991 10990 10988 10985 10981 10975 10969 10964 10960 10955
11004 11007 11014 11016 11019 11021 11021 11021 11024 11024 11024 11025 11023 11023 11024 11024 11025 11025 11024 11025 11023 11021 11020 11019 11016 11015 11012 11010 11009 11007 11005 11003 11002 11000 10999 10998 10997 10995 10994 10992 10990 10989 10985 10981 10976 10969 10965 10960 10955
11003 11005 11010 11013 11018 11021 11014 11018 11020 11022 11021 11022 11021 11023 11023 11022 11021 11022 11023 11021 11022 11021 11020 11019 11015 11013 11011 11009 11007 11006 11004 11003 11001 11001 11000 11000 10998 10997 10995 10992 10991 10989 10984 10980 10974 10968 10963 10958 10955
11001 11003 11008 11011 11013 11013 11009 11015 11017 11019 11018 11018 11019 11020 11020 11019 11017 11021 11021 11020 11020 11018 11018 11018 11016 11012 11009 11007 11005 11004 11003 11002 11001 11001 11000 11000 10998 10997 10995 10993 10991 10989 10985 10980 10975 10969 10963 10959 10954
11002 11001 11003 11005 11007 11009 11010 11012 11020 11016 11019 11018 11016 11018 11018 11016 11015 11018 11018 11017 11017 11016 11016 11015 11013 11011 11008 11006 11004 11001 11000 11000 11000 10999 10998 10998 10998 10997 10995 10992 10991 10989 10986 10981 10976 10971 10966 10961 10956
11000 11002 11003 11003 11005 11007 11009 11011 11016 11017 11017 11017 11016 11015 11018 11016 11014 11016 11015 11013 11012 11014 11013 11011 11010 11008 11006 11004 11002 10999 10998 10998 10998 10997 10997 10997 10997 10996 10994 10993 10991 10989 10986 10981 10976 10972 10969 10964 10958
10998 10999 11000 11002 11003 11006 11007 11008 11014 11012 11013 11013 11013 11011 11012 11013 11011 11012 11014 11011 11011 11012 11011 11008 11007 11005 11004 11001 10999 10997 10997 10997 10996 10995 10995 10996 10996 10995 10994 10992 10991 10990 10986 10981 10977 10973 10970 10966 10962
10997 10998 10999 11000 11000 11001 11003 11005 11007 11009 11010 11009 11008 11007 11007 11009 11008 11008 11009 11009 11008 11009 11007 11006 11005 11003 11001 10999 10996 10994 10993 10993 10992 10993 10993 10994 10994 10993 10993 10991 10991 10990 10985 10981 10978 10974 10969 10967 10964
10993 10995 10998 10999 10999 10999 10999 11002 11001 11005 11005 11004 11003 11002 11001 11003 11004 11002 11003 11005 11004 11004 11004 11003 11000 10999 10997 10996 10993 10992 10990 10989 10989 10990 10989 10992 10991 10992 10992 10991 10990 10989 10987 10981 10978 10976 10971 10968 10965
10990 10992 10995 10995 10995 10992 10994 10998 10998 11001 11001 10999 10998 10998 10996 10998 10999 10997 10996 10999 11000 10999 10998 10997 10995 10994 10993 10991 10989 10987 10986 10985 10984 10985 10986 10988 10989 10990 10991 10990 10990 10989 10985 10981 10980 10978 10973 10971 10967
10985 10987 10988 10990 10987 10989 10991 10995 10996 10995 10995 10992 10990 10990 10991 10993 10993 10989 10989 10988 10992 10993 10993 10991 10990 10991 10989 10986 10984 10982 10981 10980 10980 10978 10981 10983 10987 10988 10989 10988 10989 10987 10985 10983 10980 10977 10974 10973 10969
10979 10980 10984 10984 10984 10985 10985 10988 10989 10990 10989 10988 10988 10984 10984 10985 10987 10985 10984 10983 10984 10986 10985 10986 10986 10986 10983 10982 10980 10977 10976 10976 10974 10974 10977 10980 10983 10986 10987 10987 10987 10987 10986 10983 10980 10977 10975 10972 10970
10973 10977 10979 10978 10978 10979 10981 10983 10984 10983 10982 10983 10979 10977 10976 10978 10978 10977 10976 10977 10977 10977 10978 10980 10981 10979 10978 10977 10975 10972 10970 10971 10970 10972 10976 10979 10982 10984 10983 10984 10985 10985 10986 10984 10982 10977 10974 10973 10972
10970 10973 10974 10972 10972 10975 10976 10976 10980 10978 10979 10978 10973 10971 10968 10967 10966 10967 10967 10968 10967 10969 10970 10971 10972 10972 10972 10971 10969 10968 10967 10968 10967 10970 10973 10977 10979 10980 10980 10982 10984 10984 10984 10983 10982 10978 10976 10973 10972
10964 10967 10966 10967 10969 10970 10970 10972 10973 10970 10977 10977 10965 10965 10964 10959 10957 10957 10959 10962 10958 10961 10963 10964 10964 10964 10965 10964 10964 10963 10963 10964 10966 10970 10973 10975 10976 10978 10979 10979 10982 10983 10983 10983 10981 10979 10976 10975 10974
10958 10959 10962 10965 10964 10962 10964 10963 10963 10964 10970 10975 10966 10961 10961 10955 10953 10954 10955 10954 10951 10952 10955 10956 10957 10957 10957 10959 10959 10960 10960 10962 10965 10969 10970 10972 10973 10976 10977 10976 10979 10980 10982 10981 10981 10980 10978 10976 10974
10951 10954 10957 10959 10955 10955 10954 10956 10953 10955 10957 10957 10946 10948 10955 10953 10952 10953 10952 10950 10947 10947 10948 10950 10949 10950 10952 10954 10956 10957 10959 10960 10965 10967 10969 10970 10971 10973 10974 10975 10976 10978 10979 10979 10979 10979 10978 10978 10977
10945 10949 10952 10950 10949 10948 10947 10951 10944 10948 10947 10949 10950 10947 10944 10944 10946 10947 10950 10949 10945 10943 10942 10943 10945 10946 10948 10951 10954 10956 10958 10960 10962 10965 10967 10968 10970 10972 10972 10972 10973 10976 10977 10977 10978 10977 10977 10975 10976
10941 10944 10945 10944 10941 10940 10941 10946 10939 10942 10941 10941 10944 10941 10938 10936 10941 10944 10946 10944 10942 10941 10940 10940 10942 10944 10947 10951 10954 10954 10956 10958 10959 10961 10964 10965 10968 10969 10970 10971 10972 10974 10976 10976 10975 10976 10977 10975 10975
10936 10938 10938 10937 10935 10938 10938 10942 10935 10938 10937 10936 10937 10937 10936 10936 10939 10940 10943 10943 10941 10940 10940 10940 10941 10944 10947 10951 10952 10954 10954 10955 10957 10958 10961 10963 10965 10967 10968 10969 10972 10973 10973 10974 10975 10975 10975 10975 10975
10930 10930 10932 10932 10934 10935 10938 10939 10936 10935 10933 10933 10933 10934 10934 10932 10935 10939 10942 10942 10939 10939 10938 10938 10938 10943 10946 10949 10950 10951 10952 10953 10954 10956 10958 10961 10962 10964 10965 10967 10968 10970 10970 10971 10972 10973 10973 10974 10973
10925 10925 10926 10930 10934 10933 10935 10937 10935 10933 10931 10932 10932 10932 10933 10933 10934 10934 10934 10935 10935 10938 10938 10937 10939 10943 10946 10947 10949 10949 10950 10950 10952 10954 10955 10957 10958 10960 10962 10964 10966 10967 10967 10969 10969 10970 10972 10971 10973
10917 10921 10920 10925 10929 10929 10932 10934 10934 10934 10933 10932 10932 10933 10934 10934 10931 10933 10933 10935 10937 10936 10936 10937 10938 10941 10944 10945 10947 10948 10949 10949 10951 10953 10953 10953 10955 10957 10958 10959 10960 10962 10963 10964 10965 10965 10967 10969 10970
10912 10915 10915 10919 10924 10928 10932 10935 10935 10935 10933 10932 10931 10932 10934 10934 10933 10931 10933 10935 10935 10934 10934 10935 10937 10939 10942 10944 10945 10948 10948 10949 10949 10950 10952 10952 10952 10952 10953 10953 10954 10955 10957 10959 10960 10961 10963 10963 10966
10906 10908 10911 10916 10922 10926 10932 10934 10937 10935 10935 10931 10929 10931 10932 10933 10932 10932 10932 10932 10932 10933 10933 10935 10936 10937 10938 10941 10943 10946 10948 10947 10947 10948 10950 10950 10949 10949 10949 10950 10950 10951 10952 10952 10954 10955 10958 10959 10960
10904 10905 10907 10912 10918 10922 10930 10925 10934 10935 10936 10935 10932 10932 10930 10931 10931 10930 10928 10928 10931 10931 10932 10934 10936 10936 10937 10937 10939 10942 10943 10945 10945 10945 10946 10946 10947 10946 10946 10947 10946 10947 10948 10949 10950 10951 10952 10953 10953
10897 10900 10902 10906 10911 10917 10922 10929 10933 10933 10932 10930 10929 10932 10930 10929 10928 10928 10927 10925 10926 10929 10929 10931 10933 10934 10934 10935 10935 10937 10939 10940 10941 10942 10941 10941 10942 10943 10942 10943 10944 10942 10943 10946 10946 10947 10948 10948 10945
10897 10901 10906 10912 10913 10913 10919 10924 10927 10927 10931 10930 10926 10929 10931 10924 10925 10922 10923 10922 10924 10925 10926 10927 10928 10929 10930 10929 10929 10930 10933 10935 10936 10937 10937 10935 10936 10938 10938 10938 10939 10940 10939 10939 10941 10942 10943 10945 10944
10893 10898 10903 10906 10910 10916 10918 10924 10924 10923 10925 10925 10923 10922 10923 10925 10925 10922 10920 10917 10916 10918 10918 10920 10919 10920 10922 10922 10922 10922 10924 10926 10928 10928 10930 10929 10929 10930 10933 10931 10933 10934 10933 10933 10935 10938 10939 10941 10942